Location: ???????
(55.8860°N, 38.0932°E)
Time: 21:21:25
(UTC+00:00)

NOSS 3-1 (A) - Pass Details

Date: 14 April 2024
Orbit: 660 x 1550 km, 63.4° (Epoch: 15 May)

Event Time Altitude Azimuth Distance (km) Brightness Sun altitude
Rises 01:26:32 0° 307° (NW) 3,655 6.3 -8.2°
Reaches altitude 10° 01:28:52 10° 307° (NW) 2,820 5.7 -7.9°
Maximum altitude 01:35:41 90° 240° (WSW) 1,206 4.0 -7.1°
Drops below altitude 10° 01:44:10 10° 131° (SE) 3,464 6.7 -6.0°
Sets 01:47:19 0° 131° (SE) 4,534 7.3 -5.6°
